QPF
0.02 0.03 0.07 0.07 0.10 0.10 0.11 0.11 0.11 0.10 0.10 0.08 0.07 0.06 0.06 0.04 0.04 0.05 0.03 0.02 0.02 0.03 0.02 0.02 0.03 0.02 0.03 0.04 0.04 0.04 0.06 0.07 0.09 0.08 0.06 0.06 0.07 0.06 0.06 0.08 0.07 0.07 0.08
0.03 0.03 0.06 0.06 0.06 0.06 0.08 0.10 0.09 0.09 0.09 0.08 0.08 0.06 0.06 0.04 0.04 0.05 0.03 0.02 0.02 0.02 0.02 0.03 0.04 0.03 0.04 0.04 0.03 0.04 0.04 0.05 0.06 0.06 0.05 0.03 0.03 0.04 0.06 0.07 0.07 0.06 0.07
0.02 0.02 0.05 0.06 0.05 0.05 0.05 0.06 0.07 0.06 0.06 0.07 0.07 0.07 0.08 0.05 0.05 0.05 0.04 0.03 0.02 0.02 0.02 0.03 0.03 0.03 0.04 0.04 0.03 0.04 0.05 0.05 0.06 0.04 0.02 0.01 0.02 0.05 0.05 0.05 0.05 0.08 0.08
0.01 0.03 0.04 0.06 0.05 0.04 0.02 0.04 0.05 0.03 0.04 0.04 0.04 0.05 0.07 0.05 0.04 0.04 0.03 0.03 0.03 0.02 0.02 0.02 0.03 0.03 0.04 0.05 0.04 0.03 0.03 0.03 0.03 0.02 0.01 0.01 0.01 0.05 0.06 0.05 0.05 0.07 0.09
0.01 0.03 0.04 0.06 0.05 0.02 0.01 0.02 0.03 0.04 0.04 0.04 0.04 0.05 0.05 0.03 0.03 0.03 0.02 0.03 0.02 0.02 0.02 0.02 0.02 0.03 0.03 0.04 0.03 0.02 0.02 0.03 0.02 0.01 0.00 0.01 0.02 0.05 0.05 0.05 0.06 0.05 0.07
0.01 0.02 0.04 0.05 0.04 0.03 0.02 0.02 0.02 0.03 0.04 0.04 0.04 0.04 0.04 0.03 0.02 0.02 0.02 0.02 0.03 0.03 0.03 0.03 0.03 0.03 0.03 0.03 0.02 0.01 0.02 0.02 0.01 0.00 0.00 0.01 0.02 0.04 0.05 0.05 0.05 0.06 0.07
0.01 0.01 0.03 0.04 0.04 0.04 0.04 0.04 0.03 0.04 0.04 0.04 0.04 0.04 0.04 0.04 0.03 0.03 0.02 0.03 0.04 0.04 0.03 0.04 0.04 0.03 0.03 0.02 0.02 0.01 0.01 0.01 0.00 0.00 0.00 0.00 0.02 0.04 0.05 0.04 0.04 0.04 0.04
0.01 0.01 0.03 0.03 0.04 0.05 0.05 0.05 0.04 0.03 0.03 0.04 0.04 0.03 0.03 0.03 0.03 0.03 0.03 0.04 0.05 0.05 0.04 0.04 0.04 0.03 0.02 0.02 0.02 0.02 0.02 0.01 0.00 0.00 0.00 0.01 0.04 0.05 0.05 0.05 0.04 0.04 0.05
0.01 0.02 0.02 0.02 0.03 0.03 0.04 0.04 0.04 0.03 0.03 0.03 0.04 0.03 0.03 0.03 0.04 0.04 0.04 0.05 0.05 0.05 0.05 0.05 0.05 0.04 0.03 0.03 0.03 0.03 0.02 0.00 0.00 0.00 0.00 0.01 0.05 0.05 0.05 0.05 0.04 0.04 0.04
0.01 0.01 0.02 0.02 0.01 0.02 0.02 0.04 0.05 0.06 0.05 0.04 0.03 0.03 0.03 0.03 0.04 0.05 0.06 0.05 0.05 0.05 0.05 0.06 0.06 0.05 0.04 0.05 0.04 0.04 0.02 0.00 0.00 0.01 0.01 0.02 0.06 0.06 0.05 0.05 0.04 0.04 0.03
0.01 0.00 0.00 0.01 0.02 0.02 0.03 0.04 0.06 0.07 0.06 0.05 0.04 0.03 0.03 0.02 0.02 0.03 0.06 0.07 0.06 0.05 0.06 0.08 0.07 0.05 0.04 0.04 0.04 0.03 0.01 0.00 0.01 0.01 0.02 0.05 0.07 0.07 0.05 0.05 0.05 0.05 0.04
0.00 0.00 0.00 0.00 0.00 0.01 0.01 0.02 0.02 0.02 0.02 0.02 0.02 0.03 0.02 0.02 0.02 0.02 0.04 0.05 0.05 0.05 0.07 0.08 0.06 0.05 0.03 0.03 0.03 0.02 0.01 0.01 0.01 0.03 0.05 0.07 0.08 0.09 0.09 0.06 0.04 0.04 0.05
0.00 0.00 0.00 0.00 0.00 0.00 0.01 0.01 0.01 0.01 0.01 0.01 0.02 0.02 0.01 0.01 0.01 0.02 0.02 0.02 0.02 0.02 0.03 0.05 0.04 0.03 0.03 0.03 0.03 0.03 0.03 0.02 0.02 0.02 0.07 0.10 0.11 0.11 0.10 0.08 0.06 0.06 0.06
0.00 0.00 0.00 0.00 0.00 0.00 0.00 0.01 0.01 0.01 0.01 0.01 0.01 0.01 0.01 0.02 0.02 0.02 0.01 0.01 0.02 0.02 0.01 0.03 0.04 0.03 0.03 0.03 0.03 0.04 0.04 0.02 0.01 0.02 0.05 0.10 0.12 0.10 0.11 0.10 0.09 0.07 0.07
0.01 0.01 0.00 0.00 0.00 0.00 0.00 0.00 0.01 0.01 0.01 0.01 0.01 0.01 0.01 0.01 0.01 0.01 0.01 0.01 0.02 0.02 0.01 0.02 0.05 0.04 0.03 0.03 0.03 0.03 0.02 0.02 0.01 0.01 0.03 0.07 0.08 0.10 0.11 0.11 0.10 0.08 0.06
0.01 0.01 0.01 0.00 0.00 0.00 0.00 0.00 0.00 0.01 0.00 0.01 0.01 0.02 0.02 0.02 0.01 0.01 0.02 0.02 0.02 0.02 0.02 0.03 0.05 0.06 0.05 0.04 0.02 0.03 0.02 0.02 0.02 0.01 0.02 0.02 0.04 0.07 0.09 0.09 0.11 0.10 0.08
0.00 0.00 0.01 0.01 0.00 0.00 0.00 0.00 0.00 0.01 0.01 0.01 0.01 0.02 0.02 0.02 0.01 0.02 0.02 0.02 0.02 0.03 0.04 0.05 0.04 0.04 0.04 0.03 0.02 0.02 0.02 0.02 0.02 0.01 0.01 0.01 0.01 0.04 0.06 0.10 0.16 0.13 0.09
0.01 0.01 0.01 0.01 0.00 0.00 0.00 0.00 0.00 0.01 0.01 0.02 0.01 0.02 0.03 0.03 0.02 0.02 0.02 0.02 0.02 0.02 0.03 0.03 0.03 0.03 0.03 0.02 0.02 0.02 0.03 0.03 0.02 0.02 0.02 0.02 0.02 0.03 0.05 0.09 0.17 0.15 0.09
0.01 0.01 0.01 0.02 0.01 0.01 0.01 0.01 0.01 0.01 0.01 0.01 0.01 0.02 0.04 0.02 0.03 0.04 0.03 0.02 0.01 0.02 0.02 0.02 0.02 0.02 0.03 0.02 0.02 0.02 0.03 0.04 0.03 0.03 0.02 0.02 0.02 0.04 0.05 0.08 0.13 0.15 0.11
0.01 0.01 0.02 0.02 0.02 0.01 0.01 0.01 0.01 0.01 0.01 0.01 0.01 0.02 0.03 0.02 0.03 0.04 0.04 0.02 0.01 0.01 0.01 0.01 0.02 0.02 0.02 0.02 0.01 0.01 0.01 0.02 0.03 0.03 0.02 0.02 0.03 0.05 0.06 0.06 0.07 0.08 0.07
0.01 0.02 0.02 0.03 0.02 0.02 0.01 0.01 0.01 0.01 0.00 0.01 0.02 0.02 0.03 0.03 0.03 0.04 0.03 0.02 0.02 0.02 0.02 0.02 0.02 0.02 0.01 0.01 0.01 0.01 0.01 0.02 0.02 0.02 0.02 0.02 0.03 0.04 0.04 0.03 0.03 0.03 0.03
0.02 0.02 0.02 0.03 0.03 0.02 0.01 0.01 0.00 0.00 0.00 0.01 0.02 0.02 0.02 0.02 0.03 0.04 0.04 0.04 0.04 0.03 0.02 0.02 0.03 0.03 0.02 0.02 0.01 0.01 0.01 0.01 0.02 0.03 0.02 0.02 0.02 0.02 0.02 0.02 0.02 0.02 0.02
0.02 0.02 0.03 0.04 0.04 0.03 0.02 0.01 0.01 0.01 0.01 0.01 0.02 0.02 0.03 0.03 0.03 0.03 0.03 0.03 0.04 0.03 0.03 0.04 0.03 0.03 0.03 0.03 0.02 0.01 0.01 0.01 0.01 0.02 0.02 0.02 0.03 0.02 0.01 0.02 0.02 0.02 0.02
0.02 0.02 0.03 0.03 0.04 0.03 0.03 0.03 0.02 0.02 0.02 0.01 0.01 0.01 0.03 0.04 0.04 0.04 0.03 0.03 0.04 0.05 0.06 0.05 0.04 0.03 0.03 0.02 0.01 0.01 0.01 0.02 0.02 0.02 0.02 0.02 0.03 0.03 0.02 0.03 0.02 0.02 0.01
0.03 0.03 0.02 0.02 0.03 0.03 0.03 0.03 0.04 0.03 0.02 0.02 0.02 0.01 0.02 0.02 0.02 0.04 0.03 0.02 0.03 0.04 0.04 0.04 0.03 0.04 0.03 0.02 0.02 0.02 0.02 0.02 0.03 0.03 0.03 0.03 0.03 0.03 0.02 0.03 0.02 0.01 0.02
0.03 0.03 0.02 0.02 0.03 0.03 0.03 0.03 0.03 0.02 0.03 0.03 0.03 0.03 0.03 0.02 0.02 0.02 0.02 0.02 0.02 0.02 0.02 0.01 0.01 0.02 0.02 0.02 0.02 0.02 0.02 0.02 0.03 0.03 0.03 0.02 0.02 0.03 0.03 0.02 0.01 0.01 0.02
MSLP
1012.15 1011.62 1011.26 1011.09 1011.08 1011.19 1011.34 1011.47 1011.54 1011.52 1011.42 1011.29 1011.16 1011.08 1011.06 1011.10 1011.19 1011.28 1011.36 1011.39 1011.38 1011.34 1011.29 1011.27 1011.28 1011.35 1011.47 1011.63 1011.79 1011.95 1012.08 1012.20 1012.29 1012.39 1012.50 1012.64 1012.80 1012.99 1013.19 1013.39 1013.59 1013.78 1013.98
1011.87 1011.43 1011.14 1011.03 1011.07 1011.20 1011.36 1011.49 1011.56 1011.54 1011.46 1011.35 1011.27 1011.23 1011.25 1011.33 1011.43 1011.53 1011.59 1011.61 1011.58 1011.52 1011.46 1011.43 1011.44 1011.50 1011.60 1011.73 1011.86 1011.98 1012.07 1012.14 1012.21 1012.29 1012.40 1012.55 1012.73 1012.94 1013.16 1013.39 1013.62 1013.85 1014.09
1011.52 1011.18 1011.00 1010.96 1011.06 1011.22 1011.40 1011.53 1011.59 1011.57 1011.49 1011.40 1011.34 1011.33 1011.37 1011.46 1011.57 1011.65 1011.70 1011.69 1011.65 1011.58 1011.52 1011.49 1011.51 1011.57 1011.68 1011.79 1011.90 1011.99 1012.05 1012.10 1012.15 1012.23 1012.34 1012.50 1012.70 1012.92 1013.17 1013.42 1013.67 1013.93 1014.19
1011.13 1010.92 1010.84 1010.90 1011.06 1011.27 1011.46 1011.60 1011.65 1011.62 1011.54 1011.45 1011.39 1011.38 1011.42 1011.50 1011.59 1011.65 1011.67 1011.64 1011.59 1011.52 1011.47 1011.46 1011.50 1011.58 1011.70 1011.82 1011.93 1012.01 1012.07 1012.12 1012.18 1012.26 1012.38 1012.55 1012.76 1012.99 1013.24 1013.49 1013.74 1014.01 1014.28
1010.75 1010.67 1010.71 1010.87 1011.10 1011.35 1011.56 1011.70 1011.74 1011.69 1011.60 1011.50 1011.43 1011.40 1011.42 1011.47 1011.52 1011.56 1011.55 1011.50 1011.43 1011.37 1011.34 1011.36 1011.44 1011.56 1011.71 1011.86 1011.99 1012.09 1012.17 1012.24 1012.31 1012.41 1012.55 1012.72 1012.92 1013.14 1013.37 1013.60 1013.84 1014.09 1014.36
1010.43 1010.46 1010.61 1010.87 1011.17 1011.46 1011.68 1011.81 1011.84 1011.78 1011.66 1011.55 1011.45 1011.41 1011.40 1011.42 1011.44 1011.43 1011.39 1011.32 1011.25 1011.20 1011.20 1011.26 1011.38 1011.55 1011.74 1011.93 1012.10 1012.24 1012.36 1012.46 1012.56 1012.69 1012.83 1013.00 1013.18 1013.37 1013.56 1013.76 1013.95 1014.17 1014.41
1010.20 1010.32 1010.56 1010.89 1011.24 1011.56 1011.79 1011.91 1011.92 1011.85 1011.72 1011.60 1011.49 1011.43 1011.40 1011.39 1011.37 1011.33 1011.26 1011.17 1011.09 1011.05 1011.07 1011.17 1011.33 1011.55 1011.80 1012.04 1012.26 1012.45 1012.61 1012.75 1012.89 1013.03 1013.18 1013.33 1013.48 1013.63 1013.77 1013.90 1014.05 1014.23 1014.44
1010.05 1010.24 1010.55 1010.92 1011.29 1011.62 1011.85 1011.96 1011.97 1011.89 1011.77 1011.65 1011.56 1011.49 1011.46 1011.43 1011.38 1011.31 1011.21 1011.10 1011.01 1010.97 1011.00 1011.12 1011.32 1011.58 1011.87 1012.16 1012.43 1012.67 1012.88 1013.06 1013.22 1013.37 1013.51 1013.64 1013.75 1013.84 1013.92 1014.00 1014.10 1014.24 1014.44
1009.98 1010.21 1010.54 1010.92 1011.30 1011.62 1011.84 1011.94 1011.95 1011.88 1011.79 1011.70 1011.64 1011.60 1011.58 1011.54 1011.48 1011.38 1011.25 1011.12 1011.01 1010.96 1011.00 1011.13 1011.35 1011.64 1011.96 1012.29 1012.60 1012.87 1013.11 1013.31 1013.49 1013.63 1013.75 1013.84 1013.90 1013.94 1013.97 1014.00 1014.07 1014.19 1014.38
1009.94 1010.17 1010.51 1010.88 1011.24 1011.54 1011.74 1011.84 1011.86 1011.83 1011.78 1011.75 1011.74 1011.75 1011.75 1011.73 1011.66 1011.55 1011.39 1011.22 1011.09 1011.02 1011.04 1011.18 1011.40 1011.71 1012.05 1012.41 1012.74 1013.04 1013.29 1013.50 1013.66 1013.77 1013.85 1013.90 1013.90 1013.89 1013.87 1013.87 1013.92 1014.05 1014.26
1009.88 1010.11 1010.43 1010.78 1011.12 1011.39 1011.57 1011.68 1011.72 1011.74 1011.76 1011.80 1011.85 1011.92 1011.96 1011.96 1011.90 1011.76 1011.59 1011.39 1011.23 1011.14 1011.15 1011.27 1011.50 1011.81 1012.17 1012.53 1012.88 1013.18 1013.42 1013.60 1013.73 1013.80 1013.82 1013.80 1013.75 1013.68 1013.63 1013.61 1013.67 1013.82 1014.08
1009.77 1010.00 1010.31 1010.63 1010.93 1011.18 1011.36 1011.48 1011.56 1011.64 1011.73 1011.84 1011.98 1012.10 1012.19 1012.21 1012.16 1012.01 1011.82 1011.60 1011.42 1011.32 1011.31 1011.43 1011.66 1011.97 1012.33 1012.70 1013.04 1013.33 1013.55 1013.69 1013.76 1013.76 1013.70 1013.60 1013.48 1013.36 1013.28 1013.26 1013.34 1013.53 1013.85
1009.60 1009.84 1010.13 1010.43 1010.71 1010.95 1011.13 1011.28 1011.41 1011.55 1011.71 1011.91 1012.11 1012.28 1012.41 1012.46 1012.41 1012.27 1012.07 1011.85 1011.67 1011.56 1011.56 1011.68 1011.91 1012.23 1012.59 1012.96 1013.29 1013.55 1013.72 1013.81 1013.81 1013.72 1013.57 1013.39 1013.19 1013.02 1012.90 1012.88 1012.98 1013.23 1013.61
1009.38 1009.63 1009.92 1010.22 1010.50 1010.73 1010.94 1011.12 1011.30 1011.50 1011.73 1011.99 1012.24 1012.46 1012.62 1012.69 1012.65 1012.53 1012.34 1012.14 1011.97 1011.88 1011.90 1012.04 1012.28 1012.61 1012.98 1013.34 1013.65 1013.89 1014.02 1014.04 1013.96 1013.78 1013.54 1013.26 1012.98 1012.75 1012.60 1012.57 1012.69 1012.97 1013.40
1009.12 1009.40 1009.71 1010.01 1010.30 1010.56 1010.80 1011.03 1011.26 1011.52 1011.80 1012.09 1012.38 1012.63 1012.81 1012.89 1012.88 1012.78 1012.63 1012.47 1012.34 1012.30 1012.35 1012.52 1012.79 1013.13 1013.50 1013.86 1014.16 1014.37 1014.46 1014.43 1014.28 1014.02 1013.68 1013.32 1012.96 1012.67 1012.47 1012.42 1012.55 1012.85 1013.31
1008.87 1009.18 1009.51 1009.84 1010.16 1010.46 1010.74 1011.01 1011.29 1011.59 1011.90 1012.22 1012.52 1012.78 1012.97 1013.08 1013.10 1013.04 1012.95 1012.85 1012.79 1012.80 1012.90 1013.11 1013.40 1013.76 1014.14 1014.49 1014.78 1014.97 1015.04 1014.97 1014.77 1014.46 1014.06 1013.63 1013.21 1012.85 1012.62 1012.53 1012.64 1012.93 1013.40
1008.65 1008.99 1009.35 1009.72 1010.08 1010.42 1010.74 1011.07 1011.39 1011.72 1012.05 1012.37 1012.67 1012.92 1013.12 1013.24 1013.31 1013.31 1013.29 1013.27 1013.28 1013.36 1013.52 1013.76 1014.07 1014.43 1014.81 1015.16 1015.45 1015.64 1015.71 1015.64 1015.43 1015.09 1014.67 1014.20 1013.74 1013.35 1013.07 1012.95 1013.02 1013.29 1013.73
1008.50 1008.86 1009.25 1009.65 1010.04 1010.43 1010.81 1011.18 1011.54 1011.89 1012.22 1012.53 1012.81 1013.05 1013.25 1013.40 1013.50 1013.57 1013.63 1013.69 1013.79 1013.93 1014.13 1014.40 1014.72 1015.07 1015.44 1015.79 1016.09 1016.30 1016.39 1016.35 1016.18 1015.87 1015.47 1015.02 1014.56 1014.15 1013.84 1013.69 1013.72 1013.93 1014.32
1008.44 1008.81 1009.21 1009.63 1010.07 1010.50 1010.92 1011.33 1011.72 1012.08 1012.40 1012.69 1012.95 1013.18 1013.37 1013.54 1013.68 1013.82 1013.96 1014.10 1014.27 1014.46 1014.70 1014.97 1015.28 1015.62 1015.97 1016.32 1016.62 1016.87 1017.01 1017.05 1016.95 1016.73 1016.41 1016.01 1015.59 1015.21 1014.90 1014.72 1014.70 1014.86 1015.17
1008.48 1008.83 1009.23 1009.67 1010.13 1010.60 1011.06 1011.51 1011.91 1012.27 1012.59 1012.86 1013.09 1013.29 1013.48 1013.66 1013.85 1014.05 1014.25 1014.47 1014.69 1014.92 1015.16 1015.43 1015.71 1016.02 1016.35 1016.69 1017.02 1017.31 1017.53 1017.67 1017.69 1017.59 1017.39 1017.10 1016.77 1016.44 1016.17 1015.98 1015.93 1016.02 1016.26
1008.61 1008.94 1009.33 1009.76 1010.24 1010.73 1011.22 1011.69 1012.11 1012.47 1012.77 1013.02 1013.22 1013.41 1013.59 1013.79 1014.01 1014.25 1014.51 1014.77 1015.03 1015.28 1015.52 1015.76 1016.02 1016.29 1016.59 1016.92 1017.27 1017.62 1017.93 1018.18 1018.35 1018.40 1018.35 1018.21 1018.00 1017.77 1017.55 1017.38 1017.31 1017.35 1017.50
1008.83 1009.12 1009.48 1009.91 1010.38 1010.88 1011.39 1011.87 1012.30 1012.66 1012.95 1013.18 1013.37 1013.54 1013.72 1013.92 1014.16 1014.43 1014.73 1015.02 1015.30 1015.56 1015.79 1016.00 1016.22 1016.45 1016.73 1017.05 1017.43 1017.82 1018.23 1018.60 1018.90 1019.12 1019.24 1019.25 1019.19 1019.07 1018.94 1018.82 1018.75 1018.75 1018.84
1009.12 1009.38 1009.70 1010.09 1010.55 1011.04 1011.55 1012.04 1012.48 1012.84 1013.13 1013.35 1013.52 1013.68 1013.86 1014.07 1014.32 1014.61 1014.92 1015.23 1015.52 1015.77 1015.99 1016.18 1016.36 1016.57 1016.82 1017.15 1017.53 1017.98 1018.45 1018.92 1019.36 1019.72 1020.00 1020.17 1020.25 1020.27 1020.24 1020.18 1020.14 1020.13 1020.16
1009.49 1009.69 1009.97 1010.32 1010.74 1011.21 1011.70 1012.19 1012.63 1013.00 1013.29 1013.51 1013.68 1013.84 1014.02 1014.23 1014.48 1014.78 1015.10 1015.42 1015.71 1015.95 1016.16 1016.33 1016.50 1016.69 1016.94 1017.25 1017.65 1018.12 1018.64 1019.19 1019.71 1020.19 1020.60 1020.91 1021.14 1021.28 1021.36 1021.39 1021.40 1021.40 1021.40
1009.89 1010.05 1010.26 1010.55 1010.92 1011.36 1011.83 1012.30 1012.73 1013.11 1013.41 1013.64 1013.83 1014.00 1014.18 1014.39 1014.65 1014.95 1015.27 1015.58 1015.87 1016.12 1016.33 1016.50 1016.67 1016.85 1017.09 1017.41 1017.80 1018.28 1018.83 1019.40 1019.98 1020.54 1021.03 1021.46 1021.81 1022.08 1022.27 1022.40 1022.47 1022.51 1022.52
1010.33 1010.42 1010.56 1010.79 1011.09 1011.47 1011.90 1012.35 1012.77 1013.15 1013.47 1013.72 1013.93 1014.12 1014.32 1014.54 1014.80 1015.10 1015.42 1015.73 1016.03 1016.28 1016.50 1016.68 1016.86 1017.05 1017.30 1017.61 1018.00 1018.47 1019.00 1019.58 1020.17 1020.76 1021.31 1021.82 1022.26 1022.64 1022.94 1023.18 1023.34 1023.43 1023.47
Thickness
5752 5754 5755 5755 5755 5755 5754 5754 5754 5754 5753 5753 5753 5753 5753 5753 5754 5754 5755 5755 5756 5756 5757 5757 5758 5758 5758 5759 5759 5759 5759 5759 5759 5759 5759 5759 5759 5759 5760 5760 5760 5761 5761
5753 5753 5753 5753 5753 5752 5752 5752 5751 5751 5751 5751 5750 5750 5750 5750 5750 5751 5751 5752 5752 5753 5753 5754 5754 5755 5755 5756 5756 5756 5756 5756 5756 5756 5756 5756 5756 5757 5757 5757 5758 5758 5759
5752 5752 5752 5751 5751 5750 5750 5749 5749 5748 5748 5748 5747 5747 5747 5747 5747 5748 5748 5748 5749 5749 5750 5751 5751 5752 5752 5752 5752 5752 5752 5753 5753 5752 5752 5753 5753 5754 5754 5755 5755 5755 5756
5751 5750 5750 5749 5749 5748 5747 5747 5746 5745 5745 5744 5744 5744 5744 5744 5744 5745 5745 5745 5746 5746 5746 5747 5747 5748 5748 5748 5748 5749 5749 5749 5749 5749 5749 5749 5750 5751 5752 5752 5752 5753 5753
5750 5749 5748 5747 5746 5745 5745 5744 5743 5742 5742 5741 5741 5741 5741 5741 5741 5741 5741 5742 5742 5742 5743 5743 5744 5744 5744 5745 5745 5745 5745 5745 5745 5745 5746 5746 5747 5748 5748 5749 5749 5749 5750
5748 5746 5746 5745 5744 5743 5742 5741 5740 5740 5739 5739 5738 5738 5738 5738 5738 5738 5738 5738 5739 5739 5739 5739 5740 5740 5740 5741 5741 5741 5741 5741 5741 5742 5742 5742 5743 5744 5745 5745 5745 5746 5746
5745 5744 5743 5742 5742 5741 5740 5739 5738 5737 5736 5736 5735 5735 5735 5735 5734 5734 5735 5735 5735 5735 5736 5736 5736 5736 5736 5736 5737 5737 5737 5737 5737 5737 5738 5739 5740 5741 5741 5742 5742 5742 5743
5743 5742 5740 5740 5739 5738 5737 5736 5735 5734 5733 5733 5733 5732 5732 5732 5731 5731 5731 5731 5731 5731 5732 5732 5732 5732 5732 5732 5732 5733 5733 5733 5733 5733 5734 5735 5736 5737 5737 5737 5738 5739 5739
5740 5739 5737 5737 5736 5735 5734 5733 5732 5731 5730 5730 5729 5729 5728 5728 5728 5728 5727 5727 5727 5728 5728 5728 5728 5728 5728 5728 5728 5729 5729 5728 5729 5729 5730 5731 5732 5732 5733 5733 5734 5734 5735
5736 5735 5734 5733 5733 5731 5730 5730 5729 5728 5727 5726 5726 5725 5725 5724 5724 5724 5724 5724 5724 5724 5724 5724 5724 5724 5724 5724 5724 5724 5724 5724 5724 5725 5726 5727 5728 5728 5728 5729 5729 5730 5730
5732 5732 5731 5730 5729 5728 5727 5726 5725 5724 5723 5722 5722 5721 5721 5720 5720 5720 5720 5720 5720 5720 5720 5719 5719 5719 5719 5719 5719 5719 5719 5719 5720 5721 5722 5723 5724 5724 5724 5724 5725 5725 5726
5727 5728 5728 5727 5725 5725 5724 5722 5721 5720 5719 5718 5718 5717 5716 5716 5716 5716 5715 5716 5716 5716 5715 5715 5715 5715 5714 5714 5714 5714 5714 5715 5716 5716 5717 5719 5719 5720 5720 5720 5721 5721 5721
5725 5725 5725 5724 5723 5722 5720 5719 5717 5716 5715 5714 5714 5713 5712 5712 5711 5711 5711 5711 5711 5711 5710 5710 5710 5710 5710 5710 5710 5710 5710 5710 5710 5711 5712 5714 5715 5715 5715 5716 5716 5717 5717
5723 5722 5722 5721 5720 5718 5717 5716 5714 5713 5711 5710 5710 5709 5708 5707 5707 5706 5706 5706 5706 5706 5706 5705 5705 5705 5705 5705 5705 5705 5705 5705 5705 5706 5707 5708 5709 5710 5711 5712 5712 5712 5712
5721 5720 5719 5718 5717 5715 5714 5712 5711 5709 5708 5707 5706 5706 5705 5704 5702 5702 5702 5702 5702 5701 5701 5701 5701 5700 5700 5700 5700 5700 5700 5700 5700 5701 5701 5702 5704 5705 5706 5707 5708 5708 5707
5718 5718 5717 5716 5714 5712 5711 5709 5707 5706 5705 5704 5703 5702 5701 5700 5699 5698 5698 5698 5698 5697 5697 5696 5696 5695 5695 5695 5695 5695 5695 5695 5695 5695 5696 5697 5698 5699 5700 5702 5703 5703 5703
5717 5717 5716 5715 5712 5710 5708 5706 5704 5703 5702 5701 5699 5698 5697 5696 5695 5695 5694 5694 5693 5693 5693 5692 5692 5691 5690 5690 5689 5690 5690 5690 5690 5690 5691 5691 5692 5694 5695 5697 5698 5698 5698
5716 5714 5714 5713 5710 5708 5706 5704 5702 5700 5698 5697 5696 5695 5694 5692 5692 5691 5691 5690 5690 5690 5689 5688 5687 5686 5685 5684 5684 5685 5685 5685 5686 5686 5686 5687 5687 5689 5690 5691 5692 5693 5694
5714 5712 5711 5710 5707 5705 5703 5701 5699 5697 5695 5693 5692 5691 5690 5689 5688 5688 5687 5686 5686 5686 5685 5685 5683 5682 5680 5679 5680 5680 5680 5681 5681 5682 5682 5682 5683 5684 5685 5686 5687 5688 5689
5711 5709 5708 5706 5704 5702 5699 5697 5694 5692 5691 5689 5688 5687 5686 5686 5685 5684 5683 5683 5682 5682 5680 5680 5678 5677 5676 5676 5676 5675 5675 5676 5677 5677 5677 5678 5679 5679 5680 5681 5682 5683 5684
5707 5705 5704 5702 5700 5698 5695 5692 5689 5687 5686 5685 5685 5684 5683 5682 5681 5680 5679 5678 5678 5677 5676 5675 5674 5672 5671 5672 5671 5669 5669 5671 5671 5672 5673 5673 5674 5674 5675 5676 5677 5678 5679
5702 5701 5700 5698 5697 5695 5693 5690 5687 5685 5683 5682 5681 5680 5679 5679 5678 5677 5675 5674 5674 5673 5671 5670 5670 5668 5667 5667 5666 5663 5661 5662 5665 5667 5668 5668 5668 5670 5671 5671 5672 5673 5674
5699 5698 5697 5695 5693 5691 5690 5687 5684 5681 5678 5677 5676 5675 5675 5675 5674 5673 5672 5671 5670 5669 5667 5666 5666 5665 5663 5663 5663 5661 5657 5654 5656 5659 5661 5662 5663 5665 5665 5666 5667 5668 5669
5695 5695 5694 5691 5689 5687 5685 5683 5679 5675 5672 5672 5672 5671 5671 5671 5670 5669 5669 5668 5667 5666 5665 5664 5664 5663 5662 5659 5659 5659 5658 5657 5653 5652 5655 5657 5658 5659 5660 5661 5662 5663 5664
5692 5691 5689 5687 5685 5683 5681 5679 5676 5673 5671 5669 5669 5668 5667 5667 5667 5666 5665 5665 5664 5663 5662 5661 5661 5660 5659 5657 5656 5656 5654 5653 5653 5650 5648 5650 5652 5654 5655 5656 5657 5657 5658
5687 5686 5684 5682 5680 5679 5677 5674 5672 5669 5667 5665 5664 5663 5663 5663 5663 5663 5662 5661 5661 5660 5659 5659 5658 5657 5656 5656 5655 5654 5653 5651 5649 5648 5646 5645 5645 5648 5650 5651 5652 5652 5653